Location: Riverside Cemetery
(38.3047°N, 99.7773°W)
Time: 23:57:11
(UTC+00:00)

Nadezhda 4 Rocket - Pass Details

Date: 19 September 2020
Orbit: 949 x 993 km, 82.9° (Epoch: 23 October)

Event Time Altitude Azimuth Distance (km) Brightness Sun altitude
Rises 01:51:29 0° 1° (N) 3,631 7.2 -14.4°
Reaches altitude 10° 01:54:12 10° 9° (N) 2,680 6.4 -14.9°
Maximum altitude 01:59:50 38° 77° (ENE) 1,414 4.4 -16.0°
Enters shadow 02:03:09 22° 130° (SE) 1,943 5.0 -16.6°
